{"data":{"norad_id":49125,"intl_designator":"2021-080A","name":"CHINASAT 9B","alt_names":[],"object_type":"PAYLOAD","status":"ACTIVE","operator":null,"country":"PRC","launch_date":"2021-09-09","launch_site_code":"XICLF","launch_vehicle":null,"mission":null,"orbit_class":"UNKNOWN","rcs_meters":null,"size_class":null,"mass_kg":null,"dimensions":null,"purposes":["comms"],"wikipedia_slug":null,"has_3d_model":false,"image_url":null,"decayed_at":null,"tle_current":{"epoch":"2026-09-20T00:17:46.676256Z","epoch_age_seconds":64177,"freshness":"FRESH","line1":"1 49125U 21080A   26263.01234579 -.00000317  00000+0  00000+0 0  9992","line2":"2 49125   0.0350 247.0538 0003416 295.6818 282.0428  1.00271035 18603","mean_motion":1.00271035,"eccentricity":0.0003416,"inclination_deg":0.035,"raan_deg":247.0538,"arg_perigee_deg":295.6818,"mean_anomaly_deg":282.0428,"bstar":0,"rev_number":1860,"period_min":1436.1076456426,"perigee_km":35772.401670466,"apogee_km":35801.208758988,"semimajor_km":42164.942214727,"source":"CELESTRAK","updated_at":"2026-09-20T09:00:35.299590Z"}}}